{"data":{"norad_id":51881,"intl_designator":"2022-022AF","name":"STARLINK-3504","alt_names":[],"object_type":"PAYLOAD","status":"ACTIVE","operator":null,"country":"US","launch_date":"2022-03-03","launch_site_code":"AFETR","launch_vehicle":null,"mission":null,"orbit_class":"UNKNOWN","rcs_meters":null,"size_class":null,"mass_kg":null,"dimensions":null,"purposes":["comms"],"wikipedia_slug":null,"has_3d_model":false,"image_url":null,"decayed_at":null,"tle_current":{"epoch":"2026-09-19T07:07:15.528864Z","epoch_age_seconds":155612,"freshness":"FRESH","line1":"1 51881U 22022AF  26262.29670751  .00002711  00000+0  91392-4 0  9994","line2":"2 51881  53.1598 194.9811 0001498  85.3917 274.7257 15.34381282252734","mean_motion":15.34381282,"eccentricity":0.0001498,"inclination_deg":53.1598,"raan_deg":194.9811,"arg_perigee_deg":85.3917,"mean_anomaly_deg":274.7257,"bstar":9.1392e-5,"rev_number":25273,"period_min":93.848902935196,"perigee_km":461.73410841129,"apogee_km":463.78364081533,"semimajor_km":6840.8958746133,"source":"CELESTRAK","updated_at":"2026-09-20T09:00:39.950793Z"}}}